GW1347 Weather Reports


Display with metric or nautical units.
time (UTC)temp
F
wind
direction
speed
MPH
gust
MPH
rain 1hr
in
rain 24hr
in
rain mn
in
humidity
%
barometer
mb
20260904165834 96 329 2.0 8.0 0.00 0.00 0.00 55 1016.6
20260904164819 96 345 2.0 8.0 0.00 0.00 0.00 55 1016.8
20260904163757 96 267 1.0 6.0 0.00 0.00 0.00 55 1016.9
20260904162750 96 342 1.0 6.0 0.00 0.00 0.00 53 1017.0
20260904161806 97 268 1.0 4.0 0.00 0.00 0.00 53 1016.9
20260904160736 97 240 1.0 6.0 0.00 0.00 0.00 54 1017.0
20260904155715 95 261 1.0 6.0 0.00 0.00 0.00 57 1016.8
20260904154707 94 333 2.0 6.0 0.00 0.00 0.00 58 1016.9
20260904153730 95 286 1.0 3.0 0.00 0.00 0.00 57 1016.8
20260904151513 94 269 1.0 5.0 0.00 0.00 0.00 58 1016.8
20260904150509 92 266 1.0 5.0 0.00 0.00 0.00 61 1016.8
20260904145534 92 358 1.0 5.0 0.00 0.00 0.00 61 1016.8
20260904144525 91 259 1.0 3.0 0.00 0.00 0.00 61 1016.8
20260904142339 89 231 1.0 4.0 0.00 0.00 0.00 67 1016.7
20260904141329 88 242 1.0 4.0 0.00 0.00 0.00 68 1016.7
20260904140257 88 169 0.0 2.0 0.00 0.00 0.00 70 1016.8
20260904135306 87 210 0.0 3.0 0.00 0.00 0.00 72 1016.6
20260904132014 86 182 0.0 1.0 0.00 0.00 0.00 72 1016.8
20260904131036 85 253 0.0 1.0 0.00 0.00 0.00 74 1016.8
20260904130057 83 229 0.0 1.0 0.00 0.00 0.00 76 1016.8
20260904125059 83 165 0.0 1.0 0.00 0.00 0.00 78 1016.8
20260904122852 81 239 0.0 2.0 0.00 0.00 0.00 80 1016.7
20260904121913 80 224 1.0 2.0 0.00 0.00 0.00 82 1016.5
20260904120843 79 71 0.0 2.0 0.00 0.00 0.00 84 1016.3
20260904115814 78 113 0.0 1.0 0.00 0.00 0.00 86 1016.1
20260904114806 78 84 0.0 0.0 0.00 0.00 0.00 87 1015.9
20260904113811 77 160 0.0 2.0 0.00 0.00 0.00 88 1015.7
20260904112755 76 210 1.0 2.0 0.00 0.00 0.00 89 1015.6
20260904111724 77 216 0.0 1.0 0.00 0.00 0.00 89 1015.6
20260904110737 77 223 0.0 0.0 0.00 0.00 0.00 89 1015.5
20260904105702 77 243 0.0 2.0 0.00 0.00 0.00 89 1015.4
20260904104711 77 203 0.0 0.0 0.00 0.00 0.00 89 1015.4
20260904102509 77 203 0.0 0.0 0.00 0.00 0.00 88 1015.5
20260904101500 78 203 0.0 0.0 0.00 0.00 0.00 88 1015.6
20260904100513 77 203 0.0 0.0 0.00 0.00 0.00 88 1015.6
20260904094429 77 216 0.0 0.0 0.00 0.00 0.00 89 1015.6
20260904093412 78 216 0.0 0.0 0.00 0.00 0.00 89 1015.4
20260904092345 78 216 0.0 0.0 0.00 0.00 0.00 89 1015.3
20260904091346 78 216 0.0 0.0 0.00 0.00 0.00 89 1015.4
20260904090324 77 216 0.0 0.0 0.00 0.00 0.00 89 1015.5
20260904085301 78 234 0.0 0.0 0.00 0.00 0.00 89 1015.5
20260904081953 78 234 0.0 0.0 0.00 0.00 0.00 88 1015.5
20260904075812 79 234 0.0 0.0 0.00 0.00 0.00 87 1015.4
20260904074748 79 234 0.0 0.0 0.00 0.00 0.00 87 1015.5
20260904073721 79 234 0.0 0.0 0.00 0.00 0.00 87 1015.6
20260904072726 79 205 0.0 0.0 0.00 0.00 0.00 86 1015.5
20260904071713 79 236 0.0 0.0 0.00 0.00 0.00 87 1015.6
20260904070729 79 236 0.0 0.0 0.00 0.00 0.00 86 1015.6
20260904064512 79 236 0.0 0.0 0.00 0.00 0.00 86 1015.6
20260904063511 79 236 0.0 1.0 0.00 0.00 0.00 87 1015.6
20260904062525 79 233 0.0 0.0 0.00 0.00 0.00 85 1015.7
20260904061500 79 225 0.0 0.0 0.00 0.00 0.00 85 1015.7
20260904060516 79 225 0.0 0.0 0.00 0.00 0.00 85 1015.6
20260904055450 80 225 0.0 0.0 0.00 0.00 0.00 85 1015.7
20260904054418 80 225 0.0 0.0 0.00 0.00 0.00 83 1015.7
20260904053419 81 225 0.0 0.0 0.00 0.00 0.00 83 1015.7
20260904052359 81 225 0.0 0.0 0.00 0.00 0.00 83 1015.8
20260904051347 81 359 0.0 0.0 0.00 0.00 0.00 84 1015.7
20260904050340 81 359 0.0 0.0 0.00 0.00 0.00 84 1015.7
20260904045400 81 359 0.0 0.0 0.00 0.00 0.00 83 1015.8
20260904043219 82 359 0.0 0.0 0.00 0.00 0.00 81 1015.6
20260904042213 83 359 0.0 0.0 0.00 0.00 0.00 80 1015.6
20260904041147 82 359 0.0 0.0 0.00 0.00 0.00 81 1015.6
20260904040135 83 359 0.0 0.0 0.00 0.00 0.00 79 1015.6
20260904035139 83 359 0.0 0.0 0.00 0.00 0.00 79 1015.5
20260904034146 83 358 0.0 0.0 0.00 0.00 0.00 78 1015.6
20260904033137 83 5 0.0 0.0 0.00 0.00 0.00 79 1015.5
20260904032150 83 5 0.0 0.0 0.00 0.00 0.00 77 1015.5
20260904031149 83 5 0.0 0.0 0.00 0.00 0.00 77 1015.5
20260904030158 84 5 0.0 0.0 0.00 0.00 0.00 77 1015.6
20260904024017 86 5 0.0 0.0 0.00 0.00 0.00 74 1015.7
20260904023038 86 11 0.0 0.0 0.00 0.00 0.00 72 1015.6
20260904022014 86 133 0.0 0.0 0.00 0.00 0.00 70 1015.7
20260904020957 86 146 0.0 1.0 0.00 0.00 0.00 69 1015.7
20260904015928 86 155 0.0 3.0 0.00 0.00 0.00 69 1015.8
20260904014937 87 225 0.0 0.0 0.00 0.00 0.00 70 1015.8
20260904013934 88 225 0.0 0.0 0.00 0.00 0.00 68 1015.7
20260904012937 88 225 0.0 0.0 0.00 0.00 0.00 67 1015.7
20260904011949 88 173 0.0 2.0 0.00 0.00 0.00 66 1015.5
20260904010950 89 231 0.0 1.0 0.00 0.00 0.00 66 1015.3
20260904010013 90 5 0.0 0.0 0.00 0.00 0.00 66 1015.4
20260904003920 90 167 0.0 0.0 0.00 0.00 0.00 62 1015.1
20260904002943 90 233 0.0 0.0 0.00 0.00 0.00 63 1014.9
20260904001935 91 225 0.0 1.0 0.00 0.00 0.00 61 1014.9
20260904000954 92 244 0.0 0.0 0.00 0.00 0.00 60 1014.8
20260903234802 93 225 0.0 2.0 0.00 0.00 0.00 56 1014.6
20260903233751 95 241 1.0 0.0 0.00 0.00 0.00 54 1014.5
20260903232748 95 241 1.0 3.0 0.00 0.00 0.00 52 1014.5
20260903231801 96 313 0.0 0.0 0.00 0.00 0.00 53 1014.6
20260903225620 95 244 2.0 5.0 0.00 0.00 0.00 53 1014.5
20260903224624 96 247 1.0 9.0 0.00 0.00 0.00 50 1014.5
20260903223551 96 255 3.0 9.0 0.00 0.00 0.00 50 1014.5
20260903222518 97 192 2.0 6.0 0.00 0.00 0.00 48 1014.5
20260903221445 97 238 2.0 7.0 0.00 0.00 0.00 48 1014.5
20260903220436 96 229 4.0 8.0 0.00 0.00 0.00 50 1014.4
20260903214231 97 242 3.0 9.0 0.00 0.00 0.00 48 1014.4
20260903213231 98 267 2.0 11.0 0.00 0.00 0.00 47 1014.5
20260903212236 97 219 4.0 11.0 0.00 0.00 0.00 48 1014.6
20260903211211 97 195 3.0 8.0 0.00 0.00 0.00 46 1014.6
20260903210141 97 307 4.0 11.0 0.00 0.00 0.00 47 1014.8
20260903205157 97 286 3.0 11.0 0.00 0.00 0.00 48 1014.9
20260903204220 97 161 3.0 7.0 0.00 0.00 0.00 47 1015.0
20260903203228 98 266 4.0 10.0 0.00 0.00 0.00 48 1015.2
20260903202201 98 244 2.0 10.0 0.00 0.00 0.00 46 1015.2
20260903200041 97 226 6.0 11.0 0.00 0.00 0.00 47 1015.3
20260903195015 99 236 2.0 10.0 0.00 0.00 0.00 45 1015.6
20260903194035 98 279 1.0 4.0 0.00 0.00 0.00 47 1015.6
20260903191908 98 255 3.0 8.0 0.00 0.00 0.00 47 1015.9
20260903190931 98 247 2.0 7.0 0.00 0.00 0.00 47 1015.9
20260903185924 99 356 1.0 4.0 0.00 0.00 0.00 46 1015.8
20260903184930 99 291 1.0 11.0 0.00 0.00 0.00 46 1015.9
20260903183916 97 262 3.0 11.0 0.00 0.00 0.00 48 1016.0
20260903182858 97 226 3.0 10.0 0.00 0.00 0.00 49 1016.0
20260903181839 97 203 3.0 9.0 0.00 0.00 0.00 48 1016.0
20260903180829 97 25 2.0 10.0 0.00 0.00 0.00 47 1016.2
20260903175802 95 223 6.0 13.0 0.00 0.00 0.00 49 1016.2
20260903174748 95 233 6.0 13.0 0.00 0.00 0.00 51 1016.3
20260903173759 94 229 7.0 15.0 0.00 0.00 0.00 53 1016.4
20260903172751 94 235 6.0 15.0 0.00 0.00 0.00 52 1016.7
20260903171735 94 229 6.0 13.0 0.00 0.00 0.00 54 1016.8
20260903170800 94 243 4.0 11.0 0.00 0.00 0.00 56 1016.8